Printer-friendly version

IAU Minor Planet Center

Minor Planet Center

MPEC 2006-V07 : 2006 UR217

The following Minor Planet Electronic Circular may be linked-to from your own Web pages, but must not otherwise be redistributed electronically.

A form allowing access to any MPEC is at the bottom of this page.


Read MPEC 2006-V06 Read MPEC 2006-V08


M.P.E.C. 2006-V07                                Issued 2006 Nov. 1, 13:50 UT

     The Minor Planet Electronic Circulars contain information on unusual
         minor planets and routine data on comets.  They are published
   on behalf of Commission 20 of the International Astronomical Union by the
          Minor Planet Center, Smithsonian Astrophysical Observatory,
                          Cambridge, MA 02138, U.S.A.

             Prepared using the Tamkin Foundation Computer Network

                              MPC@CFA.HARVARD.EDU
          URL http://cfa-www.harvard.edu/iau/mpc.html  ISSN 1523-6714

                                  2006 UR217

Observations:
     K06UL7R* C2006 10 31.57870 04 30 43.66 -27 29 46.2          18.1 V EV007E12
     K06UL7R  C2006 10 31.60030 04 30 41.40 -27 27 10.9          18.2 V EV007E12
     K06UL7R  C2006 10 31.61178 04 30 40.28 -27 25 48.4          18.3 V EV007E12
     K06UL7R  C2006 10 31.62351 04 30 39.050-27 24 24.10         18.1 R EV007E12
     K06UL7R  C2006 10 31.67760 04 30 33.43 -27 17 52.8          18.2 R EV007E12
     K06UL7R  C2006 10 31.68749 04 30 32.381-27 16 40.68         18.2 R EV007E12
     K06UL7R bC2006 11 01.04303 04 30 02.87 -26 34 24.7                 EV007J95
     K06UL7R bC2006 11 01.04603 04 30 02.52 -26 34 02.2                 EV007J95
     K06UL7R bC2006 11 01.04901 04 30 02.12 -26 33 44.0          18.7 R EV007J95
     K06UL7R  C2006 11 01.21483 04 29 49.32 -26 13 22.6          18.0 R EV007H36
     K06UL7R  C2006 11 01.21548 04 29 49.35 -26 13 18.9          18.4 R EV007734
     K06UL7R  C2006 11 01.21970 04 29 48.85 -26 12 47.5          18.5 R EV007734
     K06UL7R  C2006 11 01.22262 04 29 48.68 -26 12 26.5          18.2 R EV007H36
     K06UL7R  C2006 11 01.22393 04 29 48.52 -26 12 16.9          18.4 R EV007734
     K06UL7R  C2006 11 01.23038 04 29 47.88 -26 11 30.4          18.1 R EV007H36
     K06UL7R  C2006 11 01.27862 04 29 43.75 -26 05 34.8          18.4 R EV007854
     K06UL7R  C2006 11 01.27957 04 29 43.61 -26 05 28.1          18.4 R EV007854
     K06UL7R  C2006 11 01.28052 04 29 43.56 -26 05 22.8          18.7 R EV007854
     K06UL7R  C2006 11 01.33768 04 29 39.57 -25 57 46.3          18.3 V EV007F84
     K06UL7R  C2006 11 01.34957 04 29 38.38 -25 56 20.3                 EV007F84
     K06UL7R 5C2006 11 01.37188 04 29 34.44 -25 54 16.8          18.4 R EV007673
     K06UL7R 2C2006 11 01.37533 04 29 33.27 -25 53 48.9          17.7 R EV007H06
     K06UL7R 5C2006 11 01.37870 04 29 33.73 -25 53 26.5                 EV007673
     K06UL7R 2C2006 11 01.38099 04 29 32.79 -25 53 10.8          17.6 R EV007H06
     K06UL7R 5C2006 11 01.38449 04 29 33.13 -25 52 44.8                 EV007673
     K06UL7R 2C2006 11 01.38654 04 29 32.35 -25 52 29.2          17.9 R EV007H06
     K06UL7R 5C2006 11 01.39040 04 29 32.51 -25 52 01.3                 EV007673
     K06UL7R  C2006 11 01.49211 04 29 26.061-25 38 43.51         18.0 R EV007E12
     K06UL7R  C2006 11 01.49680 04 29 25.600-25 38 09.53         18.0 R EV007E12

Observer details:
673 Table Mountain Observatory, Wrightwood.  Observer J. Young.  0.61-m f/16
    Cassegrain + CCD.
734 Farpoint Observatory.  Observer D. Tibbets.  0.7-m reflector + CCD.
854 Sabino Canyon Observatory, Tucson.  Observer J. E. McGaha.  0.36-m f/10.0
    Schmidt-Cassegrain + CCD.
E12 Siding Spring Survey.  Observer R. H. McNaught.  Measurers E. C. Beshore,
    E. J. Christensen, G. J. Garradd, A. R. Gibbs, A. D. Grauer, R. E. Hill,
    R. A. Kowalski, S. M. Larson, R. H. McNaught.  0.5-m Uppsala Schmidt + CCD.
F84 Hibiscus Observatory, Punaauia.  Observer N. Teamo.  Measurer J. C. Pelle.
    0.35-m f/3.88 Schmidt-Cassegrain + 1392x1040 CCD.
H06 RAS Observatory, Mayhill.  Observer R. Hutsebaut.  0.25-m reflector + CCD.
H36 Sandlot Observatory, Scranton.  Observer G. Hug.  0.30-m
    Schmidt-Cassegrain + CCD.
J95 Great Shefford.  Observer P. Birtwhistle.  0.40-m f/6.0 Schmidt-Cassegrain
    + CCD.

Orbital elements:
2006 UR217                                               Earth MOID = 0.1865 AU
Epoch 2006 Sept. 22.0 TT = JDT 2454000.5                MPC
M 357.22473              (2000.0)            P               Q
n   0.21731917     Peri.  305.75819     +0.95019471     -0.14525471
a   2.7399167      Node    64.06263     +0.27115426     +0.82146788
e   0.6107377      Incl.   17.85581     -0.15364045     +0.55144500
P   4.54           H   20.2           G   0.15           U   8
Residuals in seconds of arc
061031 E12  0.2-  0.1+    061101 734  0.2+  0.7-    061101 673  0.0   0.0
061031 E12  0.9-  0.1+    061101 734  0.9-  0.2+    061101 H06  3.0-  2.3+
061031 E12  0.1-  0.0     061101 H36  0.8+  0.1+    061101 673  0.1-  0.4+
061031 E12  0.3-  0.2-    061101 734  0.2+  0.2+    061101 H06  1.5-  1.1-
061031 E12  0.2-  0.3-    061101 H36  0.3+  0.0     061101 673  0.0   0.2-
061031 E12  0.5-  0.0     061101 854  0.1+  0.5+    061101 H06  0.4+  0.2-
061101 J95  0.9+  0.3-    061101 854  0.5-  0.3+    061101 673  0.1-  0.1+
061101 J95  0.2+  0.4+    061101 854  0.2+  1.3-    061101 E12  0.4+  0.5-
061101 J95 (1.2-  3.1-)   061101 F84  0.5+  0.0     061101 E12  0.2+  0.5-
061101 H36  0.9-  0.4+    061101 F84  0.3+  0.1+

Ephemeris:
2006 UR217               a,e,i = 2.74, 0.61, 18                  q = 1.0665
Date    TT    R. A. (2000) Decl.     Delta      r     Elong.  Phase     V
2006 11 01    04 30.10   -26 39.0    0.192    1.123   128.9    43.5    18.5
2006 11 11    04 15.16   -05 53.7    0.200    1.169   150.8    24.4    18.2
2006 11 21    04 00.81   +11 48.8    0.239    1.225   171.1     7.2    18.1
2006 12 01    03 49.88   +23 40.4    0.305    1.289   171.2     6.8    18.7
2006 12 11    03 44.10   +30 47.0    0.392    1.359   159.2    14.9    19.7
2006 12 21    03 43.70   +34 55.5    0.496    1.433   149.3    20.5    20.5
2006 12 31    03 48.28   +37 20.8    0.614    1.510   140.8    24.3    21.2
2007 01 10    03 56.95   +38 46.4    0.745    1.588   133.2    26.8    21.8

Timothy B. Spahr             (C) Copyright 2006 MPC           M.P.E.C. 2006-V07

Read MPEC 2006-V06 Read MPEC 2006-V08


MPEC number:

Enter an
MPEC number in one of the following forms:
  • 1997-B01 (the full form)
  • J97B01 (the packed version of the full form)
  • B01 (the abbreviated form)

Valid HTML 4.01!